User: anonymous   Login
Location: Boiro
(42.6475°N, 8.8834°W)
Time: 21:30:50
(UTC+01:00)
Language:

AO-73 - Orbit

View from above orbital plane
View from above orbital plane
View from above satellite
View from above satellite

Ground track
Ground track

The orbit data is extracted from the following two-line orbital elements,

1 39444U 13066AE  22021.50232260  .00000916  00000-0  11644-3 0  9992
2 39444  97.6076   2.2530 0057920 154.1251 206.2881 14.82745162439749
Epoch (UTC): 21 January 2022 12:03:20
Eccentricity: 0.0057920
inclination: 97.6076°
perigee height: 580 km
apogee height: 661 km
right ascension of ascending node: 2.2530°
argument of perigee: 154.1251°
revolutions per day: 14.82745162
mean anomaly at epoch: 206.2881°
orbit number at epoch: 43974

The dashed part of the orbit path shows where the satellite is in the earth's shadow,  

DLR